Weather History for Homestead AFB, FL

Change the Weather History Date:

Friday, February 22, 2013

  Actual Average Record
Temperature  
Mean Temperature 76 °F -  
Max Temperature 82 °F 77 °F 86 °F (1944)
Min Temperature 71 °F 56 °F 37 °F (1940)
Cooling Degree Days 12    
Growing Degree Days 26 (Base 50)    
Moisture  
Dew Point 70 °F    
Average Humidity 82    
Maximum Humidity 94    
Minimum Humidity 66    
Precipitation  
Precipitation 0.00 in - - ()
Sea Level Pressure  
Sea Level Pressure 30.07 in    
Wind  
Wind Speed 8 mph (ESE)    
Max Wind Speed 14 mph    
Max Gust Speed 21 mph    
Visibility 10 miles    
Events      
Averages and records for this station are not official NWS values.
T = Trace of Precipitation, MM = Missing Value Source: NWS Daily Summary

Daily Weather History Graph

Daily Weather History Graph

Search for Another Location

Airport:

Trip Planner

Search our weather history database for the weather conditions in past years. The results will help you decide how hot, cold, wet, or windy it might be!

Date:

Astronomy

Feb. 22, 2013 Rise Set
Actual Time 6:50 AM EST 6:19 PM EST
Civil Twilight 6:27 AM EST 6:42 PM EST
Nautical Twilight 6:00 AM EST 7:09 PM EST
Astronomical Twilight 5:33 AM EST 7:36 PM EST
Moon 3:40 PM EST 4:22 AM EST
Length of Visible Light 12h 15m
Length of Day
11h 29m
Waxing Gibbous, 90% of the Moon is Illuminated
Feb 22
Waxing Gibbous
Feb 25
Full
Mar 4
Last Quarter
Mar 11
New
Mar 19
First Quarter

Hourly Weather History & Observations

Time (EST) Temp. Heat Index Dew Point Humidity Pressure Visibility Wind Dir Wind Speed Gust Speed Precip Events Conditions
12:58 AM 71.8 °F - 69.1 °F 91% 30.07 in 10.0 mi East 5.8 mph - N/A   Partly Cloudy
1:58 AM 72.5 °F - 69.4 °F 90% 30.04 in 10.0 mi ESE 6.9 mph - N/A   Partly Cloudy
2:58 AM 73.4 °F - 69.8 °F 88% 30.03 in 10.0 mi ESE 5.8 mph - N/A   Scattered Clouds
3:58 AM 73.4 °F - 69.8 °F 88% 30.03 in 10.0 mi ESE 5.8 mph - N/A   Partly Cloudy
4:58 AM 73.4 °F - 69.8 °F 88% 30.05 in 10.0 mi ESE 5.8 mph - N/A   Scattered Clouds
5:58 AM 71.6 °F - 69.8 °F 94% 30.06 in 10.0 mi ESE 8.1 mph - N/A   Partly Cloudy
6:58 AM 72.1 °F - 69.4 °F 91% 30.08 in 10.0 mi East 6.9 mph - N/A   Clear
7:58 AM 74.7 °F - 70.7 °F 87% 30.10 in 10.0 mi SE 6.9 mph - N/A   Partly Cloudy
8:18 AM 75.2 °F - 69.8 °F 83% 30.09 in 10.0 mi ESE 10.4 mph - N/A   Partly Cloudy
8:58 AM 75.2 °F - 69.8 °F 83% 30.11 in 10.0 mi SE 13.8 mph - N/A   Partly Cloudy
9:11 AM 75.2 °F - 69.8 °F 83% 30.09 in 10.0 mi ESE 12.7 mph - N/A   Scattered Clouds
9:58 AM 78.8 °F - 69.8 °F 74% 30.12 in 10.0 mi ESE 12.7 mph - N/A   Partly Cloudy
10:58 AM 80.6 °F 83.9 °F 69.8 °F 70% 30.12 in 10.0 mi SE 11.5 mph - N/A   Partly Cloudy
11:58 AM 80.6 °F 83.9 °F 69.8 °F 70% 30.11 in 10.0 mi SE 12.7 mph 20.7 mph N/A   Partly Cloudy
12:20 PM 80.6 °F 83.9 °F 69.8 °F 70% 30.09 in 10.0 mi ESE 12.7 mph - N/A   Partly Cloudy
12:58 PM 82.4 °F 86.3 °F 69.8 °F 66% 30.09 in 10.0 mi ESE 10.4 mph 19.6 mph N/A   Partly Cloudy
1:58 PM 82.4 °F 86.3 °F 69.8 °F 66% 30.07 in 10.0 mi ESE 13.8 mph - N/A   Mostly Cloudy
2:18 PM 80.6 °F 83.9 °F 69.8 °F 70% 30.05 in 10.0 mi ESE 11.5 mph - N/A   Scattered Clouds
2:58 PM 80.6 °F 83.9 °F 69.8 °F 70% 30.05 in 10.0 mi ESE 12.7 mph - N/A   Partly Cloudy
3:58 PM 78.8 °F - 69.8 °F 74% 30.04 in 10.0 mi ESE 9.2 mph - N/A   Scattered Clouds
4:58 PM 77.0 °F - 69.8 °F 78% 30.04 in 10.0 mi ESE 11.5 mph - N/A   Clear
5:58 PM 77.0 °F - 69.8 °F 78% 30.05 in 10.0 mi SE 8.1 mph - N/A   Clear
6:58 PM 75.2 °F - 69.8 °F 83% 30.06 in 10.0 mi ESE 5.8 mph - N/A   Clear
7:58 PM 73.4 °F - 71.6 °F 94% 30.07 in 10.0 mi East 6.9 mph - N/A   Clear
8:58 PM 73.4 °F - 71.6 °F 94% 30.09 in 10.0 mi East 6.9 mph - N/A   Clear
9:58 PM 73.4 °F - 71.6 °F 94% 30.09 in 10.0 mi ESE 5.8 mph - N/A   Clear
10:58 PM 73.4 °F - 69.8 °F 88% 30.09 in 10.0 mi East 6.9 mph - N/A   Partly Cloudy
11:58 PM 73.4 °F - 69.8 °F 88% 30.07 in 10.0 mi ESE 6.9 mph - N/A   Partly Cloudy